Regional Weather Roundup
Issued by NWS Grand Forks, ND

Home | Current Version | Previous Version | Graphics & Text | Print | Product List | Glossary On
Versions: 1 2 3 4 5 6 7 8 9 10 11 12 13 14 15 16 17 18 19 20 21 22 23 24 25 26 27 28 29 30 31 32 33 34 35 36 37 38 39 40 41 42 43 44 45 46 47 48 49 50
000
ASUS43 KFGF 250731
RWRFGF
PRAIRIE TO PINES  WEATHER ROUNDUP
NATIONAL WEATHER SERVICE EASTERN NORTH DAKOTA/GRAND FORKS ND
100 AM CST TUE NOV 25 2014

 **SATELLITE DATA USED TO AUGMENT SKY COVER AT AUTOMATED STATIONS**
 *****  WEATHER ACROSS EASTERN NORTH DAKOTA  *****

CITY           SKY/WX    TMP DP  RH WIND       PRES   REMARKS
GRAND FORKS    CLOUDY    14   7  73 S5        29.98R WCI   6
GRAND FRKS AFB CLOUDY    16   8  71 SW1       29.97R
GRAND FRKS NWS   N/A     14 N/A N/A NW2         N/A
DEVILS LAKE    CLOUDY    21   9  58 W5        29.90F WCI  15
FARGO          CLOUDY    13   5  70 SW5       30.00F WCI   5
WAHPETON ARPT  MOSUNNY    5   0  78 W7        30.01F WCI  -7
$$

 ***** WEATHER ACROSS CENTRAL AND WESTERN NORTH DAKOTA  *****

CITY           SKY/WX    TMP DP  RH WIND       PRES   REMARKS
BISMARCK       CLOUDY    27  22  81 SW5       29.96F WCI  22
MINOT          CLOUDY    28  21  75 NW13      29.92S WCI  17
JAMESTOWN      CLOUDY    21  11  65 SW5       29.94F WCI  15
MINOT AFB      CLOUDY    28  23  83 N17       29.92R WCI  15
GARRISON         N/A     30  23  75 NW13      29.93R WCI  20
WILLISTON      CLOUDY    26  23  88 W3        29.93F
DICKINSON      CLEAR     23  19  85 W10       29.93S WCI  12
HETTINGER      CLEAR     18  15  88 W6        29.98S WCI  10
$$

 *****  OTHER AIRPORT OBSERVATIONS IN OUR AREA  *****

CITY           SKY/WX    TMP DP  RH WIND       PRES   REMARKS
WALHALLA         N/A     16  12  86 CALM      29.94F
GRAFTON AIRPOR CLOUDY    14   5  67 S3        29.97S
VALLEY CITY AR CLOUDY    16   9  73 S6        29.95F WCI   7
CANDO          CLOUDY    19  16  86 NW6       29.92S WCI  11
CAVALIER APRT  CLOUDY    16   7  67 SW3       29.95F
GWINNER        CLOUDY    18   7  62 SW8       30.01S WCI   7
SHEYENNE NWR     N/A     10   4  75 W3        29.95S
ROLLA          CLOUDY    19  18  93 NW14      29.90S WCI   6
 ***** THE ABOVE OBSERVATIONS ARE NON NWS ARE NOT QUALITY
       CONTROLLED AND MAY MIS-REPORT RAIN FOR SNOW...
$$

  *****  WEATHER ACROSS NORTHERN MINNESOTA  *****

CITY           SKY/WX    TMP DP  RH WIND       PRES   REMARKS
FLAG ISLAND    CLEAR      3   0  85 NW6       29.91S WCI  -8
WARROAD        CLEAR      0  -2  92 W7        29.94R WCI -13
ROSEAU         FAIR       3  -2  78 W5        29.95R WCI  -6
HALLOCK        CLOUDY     9   3  78 CALM      29.96S
THF RVR FALLS  MOCLDY     3  -2  78 W6        29.96R WCI  -8
BAUDETTE       CLEAR      3  -1  83 W5        29.90R WCI  -6
WASKISH        CLEAR      7   3  85 CALM      29.92R
CROOKSTON      CLOUDY    10   3  72 S3        29.99S
STEPHEN NDAWN    N/A      9   3  78 SW3         N/A
GREENBUSH NDAW   N/A      1   0  92 SW3         N/A
$$
  *****  WEATHER ACROSS CENTRAL AND WEST MINNESOTA  *****

CITY           SKY/WX    TMP DP  RH WIND       PRES   REMARKS
FOSSTON        CLEAR     -2  -6  84 S3        29.95S
BEMIDJI        CLEAR      2  -1  87 W6        29.92R WCI  -9
PARK RAPIDS    CLEAR      3  -1  83 CALM      29.91R
ELBOW LAKE       N/A      6   2  84 NW6       29.99R WCI  -4
WADENA         CLEAR      5   3  92 W5        29.94R WCI  -4
DETROIT LAKES  CLEAR      7   1  78 NW6       29.96S WCI  -3
MOORHEAD       CLOUDY    10   7  85 CALM      30.00F
FERGUS FALLS   CLEAR      3   0  85 NW5       30.03S WCI  -6
MORRIS MN        N/A      7   1  78 NW8       29.99R WCI  -6
STAPLES        CLEAR      7   3  85 W8        29.94R WCI  -6
$$
  *****  WEATHER ELSEWHERE ACROSS MINNESOTA  *****

CITY           SKY/WX    TMP DP  RH WIND       PRES   REMARKS
DULUTH         LGT SNOW  15   9  76 N10       29.84R WCI   2
INTRNTL FALLS  LGT SNOW   9   6  88 W5        29.87R FOG     WCI   1
ELY            FLURRIES   9   7  92 NW5       29.83R WCI   0
CLOQUET        FLURRIES  14   9  79 NW9       29.86S WCI   2
WHEATON        CLEAR      9   3  78 W5        30.04R WCI   0
BRAINERD       CLEAR      9   5  84 NW9       29.92R WCI  -4
HIBBING        FLURRIES  14   6  70 N16       29.85R WCI  -2
ALEXANDRIA     CLEAR      9   5  84 NW12      29.95R WCI  -6
SAINT CLOUD    CLEAR     11   5  77 NW9       29.94R WCI  -2
MINNEAPOLIS    PTCLDY    14   8  77 NW13      29.94R WCI   0
$$

  *****  WEATHER ACROSS SOUTH DAKOTA  *****

CITY           SKY/WX    TMP DP  RH WIND       PRES   REMARKS
SIOUX FALLS    CLEAR     14   6  70 W7        30.04R WCI   4
BROOKINGS      NOT AVBL
WATERTOWN      CLEAR      7   0  73 W7        29.99R WCI  -5
HURON          PTCLDY    14   7  73 SW5       30.06S WCI   6
SISSETON         N/A     12   2  64 NW6       30.00S WCI   3
ABERDEEN       CLOUDY    13   7  77 SW7       30.03S WCI   3
MITCHELL       CLEAR     15   8  73 W8        30.09R WCI   4
PIERRE         CLOUDY    25  19  78 W9        30.03F WCI  15
MOBRIDGE       CLOUDY    26  21  81 CALM      29.97S
RAPID CITY     PTCLDY    20  14  77 NW10G21   30.04S WCI   9
$$

  *****  SOME WEATHER IN NEARBY STATES *****

CITY           SKY/WX    TMP DP  RH WIND       PRES   REMARKS
GLASGOW MT     MOCLDY    26  22  84 SE10      29.85F WCI  16
GREAT FALLS MT CLOUDY    39  19  44 SW22G31   29.82F
CHEYENNE WY    CLEAR     14   7  73 NW8       30.11F WCI   3
SCOTTSBLUFF NE CLEAR     20  17  88 NW7       30.14F WCI  11
OMAHA NE       CLEAR     22   7  52 NW10      30.12R WCI  11
DES MOINES IA  CLEAR     24  15  68 NW17      30.02R WCI  11
DAVENPORT IA   FLURRIES  19  13  77 NW16      29.93R WCI   4
CHICAGO IL     FLURRIES  24  18  77 W16G26    29.83R WCI  11
EAU CLAIRE WI  CLOUDY    20  11  68 NW14G21   29.85R WCI   7
LA CROSSE WI   CLOUDY    23  14  68 NW14      29.87R WCI  11
$$

  *****  SOME NATIONAL WEATHER *****

CITY           SKY/WX    TMP DP  RH WIND       PRES   REMARKS
LA GUARDIA NY  CLOUDY    66  57  72 W12G22    29.74S
RALEIGH NC     CLOUDY    63  57  81 SW10      29.95R
ATLANTA GA     MOCLDY    53  39  59 NW12G21   30.01R
NEW ORLEANS LA CLOUDY    56  40  55 N14       30.09R
OKLAHOMA CITY  MOCLDY    38  24  57 NW5       30.18R
ALBUQUERQUE NM CLEAR     30  15  53 NW6       30.36R WCI  24
SALT LAKE CITY PTCLDY    30  19  63 S9        30.44R WCI  22
LOS ANGELES CA CLEAR     63  30  28 VRB5      30.31R
BOISE ID       LGT RAIN  41  28  60 S6        30.35R
SEATTLE WA     DRIZZLE   52  50  93 S21G29    30.09F FOG
$$

*** WEATHER ACROSS MANITOBA...SASKATCHEWAN AND ONTARIO ***
                ***ONTARIO***

CITY           SKY/WX    TMP DP  RH WIND       PRES   REMARKS
GERALDTON      FLURRIES  12   9  85 NW10G17   29.66R WCI  -1
THUNDER BAY    FLURRIES  14   9  79 W8        29.79R WCI   3
SIOUX LOOKOUT  CRYSTALS   0  -4  85 N3        29.83S
TORONTO        CLOUDY    37  28  70 SW24G36   29.67R
BIG TROUT LK   CLOUDY    -4  -8  84 W6        29.77S WCI -16
PICKLE LAKE    NOT AVBL
DRYDEN         NOT AVBL
KENORA         MOCLDY     3   1  92 W5        29.88R WCI  -6
$$
                *** MANITOBA***

CITY           SKY/WX    TMP DP  RH WIND       PRES   REMARKS
BRANDON        CLOUDY    16  12  86 NW6       29.93S WCI   7
DAUPHIN        CLOUDY    14   9  79 N5        29.96R WCI   6
ISLAND LAKE    LGT SNOW   3  -4  72 NW6       29.85R WCI  -8
PILOT MOUND      N/A     18  14  86 NW15        N/A  WCI   3
THE PAS        CLEAR      0  -6  78 N10       29.98R WCI -17
THOMPSON       CLEAR    -15 -22  70 N8        29.96R WCI -32
WINNIPEG       PTCLDY     1  -4  78 S6        29.95F WCI -10
LYNN LAKE      CLEAR    -22 -27  76 NW6       29.95F WCI -38
CHURCHILL      SNOW     -17 -24  70 NW20G26   29.90R VSB 1/2 WCI -44
GILLAM         CLEAR    -17 -24  70 NW10      29.92R WCI -37
$$
                ***SASKATCHEWAN***

CITY           SKY/WX    TMP DP  RH WIND       PRES   REMARKS
ESTEVAN        FLURRIES  21  19  93 N5        29.90F WCI  15
KINDERSLEY     MOCLDY    25  21  86 E8        29.69F WCI  16
LLOYDMINSTER   LGT SNOW  18  16  93 E10       29.73F WCI   6
PRINCE ALBERT  FLURRIES  12   9  85 E6        29.89F WCI   3
REGINA         CLOUDY    21  19  93 SE5       29.86F FOG     WCI  15
YORKTON        CLOUDY    16  14  93 NW3       29.89F
N. BATTLEFORD  LGT SNOW  21  19  93 E12G17    29.80F WCI   9
LA RONGE       FLURRIES   3  -4  72 NE7       29.96S WCI  -9
SASKATOON      CLOUDY    19  18  93 E7        29.85F WCI  10
SWIFT CURRENT  CLOUDY    28  23  80 S12G17    29.71F WCI  18
$$
NOTE: THESE ARE AUTOMATED STATIONS WITH LIMITED QUALITY CONTROL
      "FAIR" INDICATES FEW OR NO CLOUDS BELOW 12,000 FEET WITH NO
      SIGNIFICANT WEATHER AND/OR OBSTRUCTIONS TO VISIBILITY.
      SKY/WX - SKY CONDITION AND SIGNIFICANT WEATHER.
      TMP - AIR TEMPERATURE.    DP   - DEWPOINT TEMPERATURE.
      RH  - RELATIVE HUMIDITY.  PRES - PRESSURE.
      HX  - HEAT INDEX.         WCI  - WIND CHILL INDEX.
$


USA.gov is the U.S. government's official web portal to all federal, state and local government web resources and services.